Theta_e
315 314 313 314 314 318 318 318 317 317 316 315 315 315 315 315 313 312 311 310 310 309 308 309 308 308 307 306 304 305 307 308 308 308 308 309 310 311 312 312 309 307 307 306
313 314 313 315 315 316 318 317 316 317 312 314 315 316 315 314 314 312 311 311 310 309 308 307 305 306 307 305 304 307 308 308 308 308 307 309 310 311 312 311 307 306 307 307
315 316 314 316 315 316 316 316 316 317 317 314 314 315 319 322 314 312 312 312 311 309 309 306 304 304 304 304 305 307 307 308 307 307 308 309 311 312 311 311 308 307 306 307
314 314 314 315 316 314 316 315 316 319 316 316 314 317 310 314 317 314 312 311 311 309 308 305 303 303 304 304 307 307 307 308 307 307 308 309 310 311 311 312 309 308 309 309
314 313 313 314 314 313 315 314 316 315 315 315 314 311 314 319 320 318 311 310 310 308 307 305 303 304 304 306 307 307 308 308 307 307 308 309 311 312 312 311 310 310 310 309
311 310 312 312 310 313 311 313 313 313 312 311 311 314 314 316 322 314 313 311 310 308 306 304 304 304 305 306 308 308 308 308 307 307 307 308 311 312 312 313 312 312 310 311
311 311 310 310 312 311 313 312 313 314 311 315 314 315 316 316 314 311 312 310 309 307 305 303 301 301 304 306 307 308 308 307 307 307 307 309 310 312 312 313 314 315 316 316
311 312 310 309 311 312 312 312 315 318 323 321 311 313 314 312 310 310 310 309 308 306 305 303 300 301 303 305 307 308 308 307 307 307 307 308 310 312 312 313 315 316 317 318
312 313 309 309 309 311 312 314 311 312 305 311 310 310 311 310 310 310 310 309 308 306 304 302 300 301 303 304 307 307 308 307 307 307 307 308 310 311 312 313 315 316 317 319
313 314 309 308 309 309 310 309 312 308 310 316 314 311 315 314 311 308 310 309 307 306 304 302 300 300 302 304 306 307 308 307 307 306 307 308 309 310 312 313 313 314 316 318
310 313 310 308 309 311 310 310 310 310 312 319 319 317 311 313 312 310 307 309 307 306 304 303 301 301 302 303 305 307 307 307 306 307 306 307 308 310 310 312 313 314 315 317
312 315 311 310 308 307 309 308 309 313 314 311 314 313 308 307 307 308 308 307 307 305 304 302 300 300 300 302 304 306 306 307 306 306 306 307 308 309 309 310 311 313 314 315
314 313 317 317 311 307 308 309 309 309 309 313 315 315 308 307 306 306 307 306 306 306 303 302 300 298 298 300 303 305 306 307 307 306 306 306 308 308 309 308 310 311 313 313
311 313 315 315 314 309 309 308 309 310 311 311 314 314 312 309 307 306 306 308 307 307 305 302 301 299 298 299 301 303 305 306 307 306 305 305 306 308 308 309 308 310 311 311
311 310 311 311 311 310 309 309 308 310 310 311 313 312 311 308 306 306 304 306 309 308 306 304 302 300 299 298 300 302 304 306 307 306 305 305 306 307 308 308 307 307 309 311
307 312 310 308 311 311 312 309 309 309 309 309 309 310 302 302 302 303 302 303 303 304 305 304 304 301 300 299 299 300 302 305 306 306 305 305 305 306 307 307 307 307 309 309
308 310 310 314 310 312 314 312 312 310 306 305 310 305 299 300 301 301 298 300 301 301 301 302 302 303 302 302 301 300 301 303 305 306 305 305 304 304 305 307 306 306 307 308
306 310 311 314 310 316 310 299 306 305 299 298 299 297 296 297 297 297 294 296 296 296 295 296 298 300 301 303 302 301 300 302 304 305 305 304 304 304 305 305 305 305 305 305
302 308 312 315 311 312 308 299 300 303 296 295 296 295 294 295 299 298 293 293 292 292 292 291 294 296 296 296 298 299 299 301 303 304 304 304 303 303 304 303 303 304 304 303
304 304 310 313 314 312 298 295 295 298 298 293 293 293 293 294 300 294 292 292 290 289 289 288 290 292 291 290 293 297 298 300 302 303 304 303 303 302 303 303 303 304 302 303
297 305 306 309 313 299 295 294 297 306 297 292 292 292 292 293 293 292 291 290 289 288 287 286 286 287 287 286 289 291 295 296 299 301 302 302 302 302 302 303 302 303 301 301
297 296 297 297 301 302 293 293 294 293 292 291 291 291 292 291 291 290 289 289 288 287 286 285 285 285 285 284 285 287 288 288 291 295 300 301 301 301 300 300 301 300 299 298
291 292 294 296 297 294 292 292 292 291 291 291 291 290 290 290 289 289 288 287 286 285 284 284 283 283 283 282 283 283 283 285 287 291 294 298 300 300 299 299 299 298 297 295
288 287 290 292 295 292 291 291 291 291 290 289 287 286 286 286 286 287 286 285 284 284 283 282 282 281 281 281 281 281 281 282 284 286 290 295 297 298 297 297 297 297 295 293
286 289 287 289 292 293 290 289 288 288 287 285 284 283 283 282 282 283 282 282 281 281 280 280 280 279 279 279 280 280 280 280 281 283 287 290 294 295 295 295 295 295 297 298
287 286 286 286 288 288 289 286 283 283 282 281 279 279 278 279 280 278 278 277 277 276 276 277 276 276 276 277 278 278 279 279 280 281 283 286 288 292 293 293 293 294 294 295
Wind_Speed
4 4 8 11 9 4 3 3 4 4 2 4 7 14 18 14 11 11 9 9 12 11 9 21 28 28 22 13 10 6 3 1 2 3 3 7 13 11 11 7 7 6 2 6
2 8 8 9 6 7 5 4 5 5 2 4 5 17 21 17 13 8 8 4 8 7 9 12 23 25 20 16 11 7 4 2 1 2 2 4 8 8 10 6 8 5 5 6
6 4 5 9 5 5 4 5 4 7 4 4 6 8 6 5 3 2 2 2 4 9 14 11 12 22 19 16 13 8 5 3 3 3 4 4 8 10 8 7 6 5 5 5
7 9 1 4 4 6 4 4 6 3 3 3 3 6 7 9 9 5 6 4 4 7 7 9 9 16 20 16 13 9 6 5 4 4 6 8 11 5 5 5 4 2 3 3
8 3 6 4 4 8 6 2 4 3 2 3 3 3 9 6 8 5 7 7 6 7 9 9 9 19 19 18 14 10 7 6 5 5 6 7 10 7 5 6 5 3 2 3
5 2 1 5 3 1 7 4 5 4 2 1 6 6 6 4 4 2 2 5 7 7 9 8 15 21 20 16 13 11 9 7 6 6 7 8 10 8 8 6 5 4 4 8
2 3 1 2 5 6 2 5 2 4 2 5 1 4 11 5 7 7 8 9 8 7 9 9 9 11 18 17 15 13 11 10 8 7 8 7 8 10 9 6 4 4 4 6
7 4 9 6 6 7 7 7 5 7 4 3 3 6 7 6 1 1 6 8 7 7 8 9 9 14 18 18 17 15 13 12 10 9 9 7 8 10 8 6 7 7 5 5
6 4 1 3 1 6 6 6 5 3 2 3 5 7 9 2 2 2 6 7 8 8 8 9 7 15 19 20 19 16 14 12 12 11 11 10 9 10 10 7 7 8 7 10
3 2 1 0 0 1 3 2 2 2 2 4 5 4 6 6 6 7 8 9 8 8 8 8 8 14 20 21 19 16 15 14 13 12 12 13 10 10 10 11 8 8 8 10
3 2 2 2 6 8 3 3 4 3 5 5 1 5 5 3 1 7 9 9 8 9 8 8 7 18 23 22 20 20 17 15 15 15 14 14 13 11 12 13 11 11 11 11
2 2 4 8 3 2 1 6 6 4 4 4 3 6 5 4 5 4 6 7 7 7 9 8 8 17 21 23 23 22 20 19 17 16 16 15 15 14 13 13 14 12 12 12
5 3 3 2 4 2 5 5 4 2 3 6 4 4 2 2 6 6 5 5 7 8 8 8 7 9 16 22 24 23 22 21 19 18 18 17 18 18 16 15 16 14 14 13
3 4 5 6 3 3 4 6 12 12 4 3 12 3 4 9 10 9 6 4 3 5 7 7 6 7 14 21 25 24 23 22 21 20 21 21 21 22 20 18 16 17 17 15
1 3 3 10 1 1 5 6 9 17 18 8 5 7 5 13 13 14 12 7 1 4 6 8 8 8 13 20 24 25 25 24 25 24 23 23 22 21 21 20 18 18 17 17
1 2 2 4 8 7 11 8 7 11 12 14 14 16 12 11 13 18 18 16 17 11 9 9 8 8 11 19 25 28 29 28 26 27 26 23 23 23 24 23 21 20 20 20
2 2 1 4 3 6 5 13 16 6 9 5 10 7 16 11 13 15 18 17 17 19 19 14 7 9 15 23 27 27 30 27 27 29 27 25 25 25 26 24 23 23 23 22
3 3 2 1 2 4 3 8 3 12 11 11 9 13 13 12 10 9 16 18 19 20 20 19 17 22 17 17 22 25 26 28 29 31 29 28 27 27 26 27 27 26 24 25
11 3 2 3 4 4 3 7 5 4 7 11 11 13 14 16 6 6 20 17 16 16 16 21 26 24 24 26 24 20 23 25 28 29 31 31 30 29 27 28 28 27 26 25
9 10 3 3 3 4 4 10 6 4 3 9 11 13 16 16 5 6 17 16 15 21 23 26 27 25 29 34 31 15 17 20 24 30 33 32 30 30 30 30 29 27 28 27
3 1 7 8 5 4 8 12 5 5 3 3 7 9 9 7 4 8 13 12 17 18 22 26 26 24 25 31 30 24 19 13 17 23 26 27 28 31 31 30 29 29 29 26
3 3 2 3 2 2 11 4 5 2 3 2 4 5 6 5 7 7 10 12 15 18 22 24 23 23 25 29 27 24 22 28 22 17 19 23 26 29 31 30 29 29 29 27
1 1 1 2 2 3 1 9 6 4 3 3 4 5 6 8 8 10 10 10 12 16 18 20 20 21 23 27 24 22 26 30 29 22 17 21 24 28 30 30 30 29 29 28
5 1 1 2 3 6 7 6 5 3 2 2 4 7 7 8 11 11 10 11 12 15 17 20 20 20 22 25 23 23 26 29 28 26 20 16 22 25 27 29 30 30 29 25
4 1 2 4 1 4 3 2 2 1 3 4 5 5 7 9 11 11 12 12 16 19 20 18 18 21 22 24 23 27 29 30 25 24 23 18 15 21 24 28 32 33 37 37
3 4 3 3 3 2 2 3 3 3 3 4 7 9 8 8 9 12 10 15 17 19 20 20 20 21 23 24 24 28 28 27 24 21 20 20 19 17 20 24 26 31 34 34
Wind_Direction
227 143 204 201 205 210 123 177 231 275 219 249 239 275 282 280 272 272 251 233 224 200 192 158 148 149 146 150 153 158 191 203 318 8 31 61 45 32 27 8 29 11 70 120
95 237 218 211 209 217 247 241 266 279 173 235 275 286 287 283 270 246 250 248 237 156 134 138 142 149 152 154 157 166 171 173 115 64 74 56 45 31 26 49 47 67 112 110
172 238 202 201 190 175 190 192 205 220 320 280 307 294 320 304 275 214 130 102 36 162 145 148 144 148 151 157 162 168 176 167 133 113 116 80 69 47 27 56 62 86 122 131
224 250 306 158 186 150 214 214 197 171 54 246 44 286 298 283 289 235 223 185 142 111 124 146 142 149 157 161 163 170 177 163 139 123 114 78 70 45 13 37 79 124 127 190
232 203 162 172 206 165 225 104 122 135 169 5 312 76 273 301 296 273 218 205 195 152 155 153 155 158 164 163 168 172 174 162 151 132 127 108 92 71 69 76 101 113 155 164
181 162 142 169 60 86 145 75 42 45 92 359 236 155 282 245 229 243 188 189 186 165 157 152 157 159 157 164 170 173 174 171 158 151 143 136 117 91 102 91 106 103 134 145
144 196 133 147 90 7 101 90 332 349 354 223 168 108 244 251 259 215 201 196 190 172 154 155 152 153 163 170 180 179 177 174 168 159 153 153 129 115 111 114 108 130 145 164
160 276 164 190 190 177 183 163 172 206 204 256 46 225 249 232 275 227 181 160 170 169 165 166 165 165 174 183 188 182 181 179 179 169 158 165 149 131 136 133 130 125 159 173
170 240 124 89 84 148 196 203 183 111 45 62 231 277 300 150 171 114 147 158 183 182 178 173 173 178 186 192 193 187 183 185 188 179 169 168 170 156 147 159 148 137 146 132
223 127 6 333 105 74 149 193 104 360 202 251 271 266 236 251 242 210 202 198 192 191 186 182 181 189 198 198 195 192 192 191 192 188 182 175 181 172 168 164 174 161 152 148
198 54 325 89 212 171 166 217 234 150 168 193 259 258 225 259 254 226 216 204 194 191 197 190 186 195 199 199 196 193 193 192 192 195 190 184 186 188 179 174 181 181 173 168
101 80 191 210 270 207 276 209 180 153 218 222 164 269 355 357 9 343 234 207 196 182 191 191 187 192 197 200 198 198 197 197 197 196 196 193 187 193 188 184 179 181 183 182
144 189 133 280 340 353 220 203 225 117 72 214 158 258 292 11 4 325 317 298 202 186 185 192 185 196 201 203 203 204 203 203 200 195 197 201 195 196 199 192 192 187 188 185
182 193 216 192 168 131 193 218 209 206 195 172 231 294 263 33 13 335 321 347 140 180 189 196 201 206 209 212 212 212 210 207 203 201 200 203 204 198 201 206 201 198 197 195
127 238 264 257 216 277 209 226 217 214 220 200 272 223 264 29 21 5 7 355 132 193 206 217 214 211 213 216 220 220 219 212 207 205 206 208 206 203 205 208 209 204 202 209
175 231 201 265 223 206 256 263 233 236 244 262 273 277 35 22 10 14 8 5 356 321 290 245 217 209 214 217 220 221 221 217 211 209 213 212 206 204 208 208 209 211 215 216
219 237 179 263 314 137 257 240 228 203 65 341 253 330 348 5 357 18 2 4 6 6 1 348 288 237 223 222 225 222 226 220 216 217 216 214 211 209 210 212 209 211 214 216
279 194 205 283 7 230 126 18 329 102 54 27 359 358 350 331 304 51 18 11 5 1 358 354 350 351 341 272 246 240 231 224 220 220 219 217 213 215 213 213 215 216 216 213
220 277 228 248 197 305 40 22 10 25 61 21 12 5 352 327 289 130 16 9 2 356 356 350 349 356 1 4 350 260 233 224 223 221 224 224 217 217 215 214 214 216 212 210
209 219 255 200 246 235 25 326 306 288 100 18 11 8 2 1 54 358 348 358 358 358 358 355 356 3 9 358 356 328 257 235 226 231 232 231 225 222 220 219 215 215 211 210
342 225 225 239 260 72 322 319 293 177 85 8 5 4 360 15 350 325 338 352 360 0 358 359 2 5 2 359 360 3 0 337 296 262 246 240 235 230 229 226 221 215 213 212
345 341 358 326 331 198 333 65 62 63 93 321 305 334 331 324 319 332 338 341 348 351 354 360 0 358 357 2 3 358 357 344 334 323 266 248 243 237 232 230 226 219 216 212
2 125 290 347 357 107 68 128 134 151 221 270 297 331 333 319 327 327 328 333 338 343 344 351 352 349 355 357 1 354 344 344 340 325 308 265 246 239 234 228 226 220 218 212
345 242 282 337 160 195 151 151 163 209 241 20 360 335 335 327 329 326 329 331 335 336 340 343 344 346 343 347 348 348 347 349 344 339 324 303 257 243 236 230 228 221 214 210
215 41 229 283 177 102 76 85 94 35 68 15 360 343 333 331 322 329 326 326 329 324 327 335 336 332 329 331 334 345 350 353 346 340 338 327 292 259 247 236 230 227 230 223
212 218 149 233 213 168 151 126 87 80 34 24 348 328 336 334 331 333 320 322 320 322 329 331 330 325 322 323 322 335 346 349 347 339 335 331 320 290 263 251 245 240 242 241